User: anonymous   Login
Location: Newark
(35.8833°N, 14.5000°E)
Time: 21:29:54
(UTC+00:00)
Language:

PCSat - Orbit

View from above orbital plane
View from above orbital plane
View from above satellite
View from above satellite

Ground track
Ground track

The orbit data is extracted from the following two-line orbital elements,

1 26931U 01043C   20215.80087701 -.00000043 +00000-0 +15125-4 0  9996
2 26931 067.0519 022.7893 0005971 274.7433 085.2986 14.30583499983772
Epoch (UTC): 02 August 2020 19:13:15
Eccentricity: 0.0005971
inclination: 67.0519°
perigee height: 785 km
apogee height: 794 km
right ascension of ascending node: 22.7893°
argument of perigee: 274.7433°
revolutions per day: 14.30583499
mean anomaly at epoch: 85.2986°
orbit number at epoch: 98377

The dashed part of the orbit path shows where the satellite is in the earth's shadow,  

DLR